This is the latest recevied weather packets stored in our database for station/object KO6LQJ. If no packets are shown the sender has not sent any weather packets the latest 10 day(s).
| Time | Temp. | Humidity | Pressure | Rain* | Wind** | Luminosity | Snow |
|---|---|---|---|---|---|---|---|
| 1777504941 | 23.89° C | 37% | 1015.9 hPa | 0 mm | - | 63 W/m² | - |
| 1777504638 | 23.89° C | 38% | 1015.9 hPa | 0 mm | - | 52 W/m² | - |
| 1777504335 | 24.44° C | 37% | 1015.8 hPa | 0 mm | - | 51 W/m² | - |
| 1777504029 | 23.89° C | 37% | 1015.8 hPa | 0 mm | - | 52 W/m² | - |
| 1777503727 | 23.33° C | 38% | 1015.8 hPa | 0 mm | - | 117 W/m² | - |
| 1777503423 | 23.89° C | 39% | 1016.1 hPa | 0 mm | - | 54 W/m² | - |
| 1777503119 | 23.89° C | 39% | 1016.3 hPa | 0 mm | - | 58 W/m² | - |
| 1777502817 | 23.89° C | 38% | 1016.4 hPa | 0 mm | - | 56 W/m² | - |
| 1777502514 | 23.89° C | 38% | 1016.4 hPa | 0 mm | - | 510 W/m² | - |
| 1777502211 | 23.89° C | 37% | 1016.3 hPa | 0 mm | - | 428 W/m² | - |
| 1777501908 | 24.44° C | 36% | 1016.5 hPa | 0 mm | - | 77 W/m² | - |
| 1777501605 | 24.44° C | 36% | 1016.4 hPa | 0 mm | - | 56 W/m² | - |
| 1777501302 | 24.44° C | 36% | 1016.5 hPa | 0 mm | - | 59 W/m² | - |
| 1777501000 | 24.44° C | 36% | 1016.4 hPa | 0 mm | - | 433 W/m² | - |
| 1777500697 | 24.44° C | 36% | 1016.5 hPa | 0 mm | - | 282 W/m² | - |
| 1777500394 | 24.44° C | 36% | 1016.6 hPa | 0 mm | - | 341 W/m² | - |
| 1777500090 | 25° C | 35% | 1016.6 hPa | 0 mm | - | 499 W/m² | - |
| 1777499787 | 25° C | 34% | 1016.6 hPa | 0 mm | - | 93 W/m² | - |
| 1777499483 | 24.44° C | 36% | 1016.7 hPa | 0 mm | - | 68 W/m² | - |
| 1777499182 | 24.44° C | 36% | 1016.7 hPa | 0 mm | - | 69 W/m² | - |
| 1777498878 | 25° C | 37% | 1016.7 hPa | 0 mm | - | 301 W/m² | - |
| 1777498574 | 25° C | 36% | 1016.5 hPa | 0 mm | - | 119 W/m² | - |
| 1777498270 | 25.56° C | 36% | 1016.7 hPa | 0 mm | - | 495 W/m² | - |
| 1777497970 | 25° C | 37% | 1016.4 hPa | 0 mm | - | 363 W/m² | - |
| 1777497670 | 25.56° C | 37% | 1016.6 hPa | 0 mm | - | 407 W/m² | - |
* Rain latest hour (hover to see other rain measurements)
** Current wind speed in m/s (hover to see current wind gust speed)